ONEWEB-0118 (47264 NORAD) Tracking and Keplerian Element Data
This shows tracking and keplerian element data for the satellite.
Feedback or suggestion? Click here.
Element | Value |
Catalog | 47264 |
Name | ONEWEB-0118 |
Epoch Orbit | 172 |
Epoch Day | 60.91667824 |
Epoch Year | 2021 |
RAAN | 16.1897 |
Inclination | 87.6804 |
Eccentricity | 0.0013057 |
Argument of Perigee | 24.4495 |
Mean Anonmoly | 50.5759 |
Mean Motion | 14.00623589 |
Decay Rate | -0.01343497 |
L1 | 1 47264U 20100G 21060.91667824 -.01343497 00000-0 -96635+0 0 9999 |
L2 | 2 47264 87.6804 16.1897 0013057 24.4495 50.5759 14.00623589 1723 |
Live tracking and technical data element details for ONEWEB-0118 (NORAD 47264). ONEWEB-0118 can be tracked NOW for your location showing map with azimuth and elevation plus other details from your city location.
Track the satellite on the map from your city or location and see movement details for azimuth, elevation, latitude, longitude, range, height, and movement on the map or in text.
IsCatalogInMostPopularTable: catalog: 47264, numindb: 21
Update: records affected: 1
GetName: 47264 ONEWEB-0118
Hit Count: updated at: Tue, 02 Mar 2021 13:20:36 GMT